Time,TemperatureF,DewpointF,PressureIn,WindDirection,WindDirectionDegrees,WindSpeedMPH,WindSpeedGustMPH,Humidity,HourlyPrecipIn,Conditions,Clouds,dailyrainin,SoftwareType,DateUTC
2013-04-01 00:02:00,32.3,18.3,22.62,WSW,240,0.0,21.0,56,0.00,,,0.00,Wunderground v.1.15,2013-04-01 06:02:00,
2013-04-01 00:05:00,32.3,18.3,22.62,NNE,19,0.0,21.0,56,0.00,,,0.00,Wunderground v.1.15,2013-04-01 06:05:00,
2013-04-01 00:07:00,32.5,18.9,22.62,NNW,343,0.0,21.0,57,0.00,,,0.00,Wunderground v.1.15,2013-04-01 06:07:00,
2013-04-01 00:09:00,32.7,18.7,22.62,NNW,343,1.0,21.0,56,0.00,,,0.00,Wunderground v.1.15,2013-04-01 06:09:00,
2013-04-01 00:13:00,32.4,18.8,22.62,ESE,112,1.0,21.0,57,0.00,,,0.00,Wunderground v.1.15,2013-04-01 06:13:00,
2013-04-01 00:15:00,32.4,19.3,22.63,NNW,346,1.0,21.0,58,0.00,,,0.00,Wunderground v.1.15,2013-04-01 06:15:00,
2013-04-01 00:22:00,33.5,20.3,22.62,North,359,2.0,21.0,58,0.00,,,0.00,Wunderground v.1.15,2013-04-01 06:22:00,
2013-04-01 00:24:00,33.5,19.9,22.62,East,101,2.0,2.0,57,0.00,,,0.00,Wunderground v.1.15,2013-04-01 06:24:00,
2013-04-01 00:28:00,33.7,20.9,22.62,NNW,328,3.0,7.0,59,0.00,,,0.00,Wunderground v.1.15,2013-04-01 06:28:00,
2013-04-01 00:29:00,34.0,20.8,22.62,NNE,13,3.0,21.0,58,0.00,,,0.00,Wunderground v.1.15,2013-04-01 06:29:00,
2013-04-01 00:32:00,34.1,20.9,22.62,North,359,3.0,21.0,58,0.00,,,0.00,Wunderground v.1.15,2013-04-01 06:32:00,
2013-04-01 00:33:00,34.1,20.4,22.63,NNW,334,4.0,4.0,57,0.00,,,0.00,Wunderground v.1.15,2013-04-01 06:33:00,
2013-04-01 00:38:00,34.2,20.1,22.63,ENE,57,3.0,21.0,56,0.00,,,0.00,Wunderground v.1.15,2013-04-01 06:38:00,
2013-04-01 00:39:00,34.2,20.1,22.63,WNW,301,3.0,21.0,56,0.00,,,0.00,Wunderground v.1.15,2013-04-01 06:39:00,
2013-04-01 00:41:00,34.2,20.1,22.63,NNW,343,2.0,21.0,56,0.00,,,0.00,Wunderground v.1.15,2013-04-01 06:41:00,
2013-04-01 00:43:00,34.0,20.3,22.63,NNE,25,2.0,2.0,57,0.00,,,0.00,Wunderground v.1.15,2013-04-01 06:43:00,
2013-04-01 00:47:00,33.7,20.1,22.63,NNE,15,2.0,21.0,57,0.00,,,0.00,Wunderground v.1.15,2013-04-01 06:47:00,
2013-04-01 00:49:00,33.6,20.0,22.63,North,358,2.0,21.0,57,0.00,,,0.00,Wunderground v.1.15,2013-04-01 06:49:00,
2013-04-01 00:55:00,33.4,20.2,22.63,NNE,32,2.0,2.0,58,0.00,,,0.00,Wunderground v.1.15,2013-04-01 06:55:00,
2013-04-01 00:59:00,33.1,20.3,22.63,NNE,32,1.0,21.0,59,0.00,,,0.00,Wunderground v.1.15,2013-04-01 06:59:00,
2013-04-01 01:02:00,33.0,20.2,22.63,NNE,32,1.0,21.0,59,0.00,,,0.00,Wunderground v.1.15,2013-04-01 07:02:00,
2013-04-01 01:04:00,32.9,20.1,22.63,NNE,32,1.0,21.0,59,0.00,,,0.00,Wunderground v.1.15,2013-04-01 07:04:00,
2013-04-01 01:08:00,32.5,19.7,22.63,NNE,32,1.0,21.0,59,0.00,,,0.00,Wunderground v.1.15,2013-04-01 07:08:00,
2013-04-01 01:10:00,32.1,19.8,22.63,North,351,1.0,21.0,60,0.00,,,0.00,Wunderground v.1.15,2013-04-01 07:10:00,
2013-04-01 01:16:00,31.7,19.8,22.63,North,351,1.0,1.0,61,0.00,,,0.00,Wunderground v.1.15,2013-04-01 07:16:00,
2013-04-01 01:17:00,31.7,20.2,22.63,North,351,1.0,21.0,62,0.00,,,0.00,Wunderground v.1.15,2013-04-01 07:17:00,
2013-04-01 01:19:00,31.6,20.1,22.63,North,351,0.0,21.0,62,0.00,,,0.00,Wunderground v.1.15,2013-04-01 07:19:00,
2013-04-01 01:25:00,31.4,20.2,22.63,NNW,339,0.0,21.0,63,0.00,,,0.00,Wunderground v.1.15,2013-04-01 07:25:00,
2013-04-01 01:31:00,31.0,19.9,22.63,NNW,338,0.0,21.0,63,0.00,,,0.00,Wunderground v.1.15,2013-04-01 07:31:00,
2013-04-01 01:33:00,30.9,20.1,22.63,SW,235,0.0,21.0,64,0.00,,,0.00,Wunderground v.1.15,2013-04-01 07:33:00,
2013-04-01 01:39:00,30.7,20.3,22.63,West,269,0.0,21.0,65,0.00,,,0.00,Wunderground v.1.15,2013-04-01 07:39:00,
2013-04-01 01:41:00,30.6,19.9,22.63,West,273,0.0,21.0,64,0.00,,,0.00,Wunderground v.1.15,2013-04-01 07:41:00,
2013-04-01 01:48:00,30.5,20.5,22.63,NW,321,1.0,21.0,66,0.00,,,0.00,Wunderground v.1.15,2013-04-01 07:48:00,
2013-04-01 01:54:00,30.3,20.3,22.63,NW,316,0.0,21.0,66,0.00,,,0.00,Wunderground v.1.15,2013-04-01 07:54:00,
2013-04-01 01:55:00,30.3,20.3,22.63,West,270,0.0,21.0,66,0.00,,,0.00,Wunderground v.1.15,2013-04-01 07:55:00,
2013-04-01 01:57:00,30.3,20.3,22.63,West,273,0.0,21.0,66,0.00,,,0.00,Wunderground v.1.15,2013-04-01 07:57:00,
2013-04-01 01:59:00,30.2,20.6,22.62,NNW,332,0.0,21.0,67,0.00,,,0.00,Wunderground v.1.15,2013-04-01 07:59:00,
2013-04-01 02:01:00,30.3,21.0,22.62,NNE,22,0.0,21.0,68,0.00,,,0.00,Wunderground v.1.15,2013-04-01 08:01:00,
2013-04-01 02:05:00,30.4,20.7,22.62,North,351,0.0,21.0,67,0.00,,,0.00,Wunderground v.1.15,2013-04-01 08:05:00,
2013-04-01 02:09:00,30.4,21.1,22.62,NNE,19,0.0,21.0,68,0.00,,,0.00,Wunderground v.1.15,2013-04-01 08:09:00,
2013-04-01 02:13:00,30.5,21.2,22.62,WNW,287,1.0,21.0,68,0.00,,,0.00,Wunderground v.1.15,2013-04-01 08:13:00,
2013-04-01 02:15:00,30.5,20.8,22.62,West,276,1.0,21.0,67,0.00,,,0.00,Wunderground v.1.15,2013-04-01 08:15:00,
2013-04-01 02:22:00,29.8,20.2,22.62,NNW,327,1.0,21.0,67,0.00,,,0.00,Wunderground v.1.15,2013-04-01 08:22:00,
2013-04-01 02:24:00,29.6,20.3,22.62,NNW,333,1.0,21.0,68,0.00,,,0.00,Wunderground v.1.15,2013-04-01 08:24:00,
2013-04-01 02:27:00,29.1,20.2,22.62,SW,221,1.0,21.0,69,0.00,,,0.00,Wunderground v.1.15,2013-04-01 08:27:00,
2013-04-01 02:31:00,28.8,20.6,22.61,NW,318,1.0,21.0,71,0.00,,,0.00,Wunderground v.1.15,2013-04-01 08:31:00,
2013-04-01 02:33:00,28.7,20.5,22.62,NW,318,1.0,1.0,71,0.00,,,0.00,Wunderground v.1.15,2013-04-01 08:33:00,
2013-04-01 02:35:00,28.6,20.4,22.61,NW,317,1.0,21.0,71,0.00,,,0.00,Wunderground v.1.15,2013-04-01 08:35:00,
2013-04-01 02:39:00,28.3,20.1,22.61,NW,318,0.0,21.0,71,0.00,,,0.00,Wunderground v.1.15,2013-04-01 08:39:00,
2013-04-01 02:44:00,27.9,19.7,22.61,NW,317,0.0,21.0,71,0.00,,,0.00,Wunderground v.1.15,2013-04-01 08:44:00,
2013-04-01 02:49:00,27.2,19.4,22.61,NE,56,0.0,21.0,72,0.00,,,0.00,Wunderground v.1.15,2013-04-01 08:49:00,
2013-04-01 02:52:00,27.0,19.5,22.61,North,9,0.0,21.0,73,0.00,,,0.00,Wunderground v.1.15,2013-04-01 08:52:00,
2013-04-01 02:57:00,26.9,19.7,22.61,NNW,339,0.0,21.0,74,0.00,,,0.00,Wunderground v.1.15,2013-04-01 08:57:00,
2013-04-01 03:00:00,26.9,19.7,22.61,NNW,339,0.0,21.0,74,0.00,,,0.00,Wunderground v.1.15,2013-04-01 09:00:00,
2013-04-01 03:01:00,26.8,19.6,22.61,SSW,205,0.0,21.0,74,0.00,,,0.00,Wunderground v.1.15,2013-04-01 09:01:00,
2013-04-01 03:03:00,26.6,19.4,22.61,SSW,205,0.0,21.0,74,0.00,,,0.00,Wunderground v.1.15,2013-04-01 09:03:00,
2013-04-01 03:09:00,26.2,19.4,22.61,SE,145,0.0,21.0,75,0.00,,,0.00,Wunderground v.1.15,2013-04-01 09:09:00,
2013-04-01 03:11:00,26.1,19.3,22.61,SE,146,0.0,21.0,75,0.00,,,0.00,Wunderground v.1.15,2013-04-01 09:11:00,
2013-04-01 03:15:00,25.9,19.1,22.61,SE,145,0.0,21.0,75,0.00,,,0.00,Wunderground v.1.15,2013-04-01 09:15:00,
2013-04-01 03:18:00,25.8,19.3,22.61,SE,145,0.0,21.0,76,0.00,,,0.00,Wunderground v.1.15,2013-04-01 09:18:00,
2013-04-01 03:20:00,25.8,19.3,22.61,SE,127,0.0,21.0,76,0.00,,,0.00,Wunderground v.1.15,2013-04-01 09:20:00,
2013-04-01 03:26:00,25.6,19.1,22.61,SE,127,0.0,21.0,76,0.00,,,0.00,Wunderground v.1.15,2013-04-01 09:26:00,
2013-04-01 03:28:00,25.5,19.0,22.61,SW,231,0.0,21.0,76,0.00,,,0.00,Wunderground v.1.15,2013-04-01 09:28:00,
2013-04-01 03:30:00,25.5,19.0,22.61,SW,231,0.0,21.0,76,0.00,,,0.00,Wunderground v.1.15,2013-04-01 09:30:00,
2013-04-01 03:33:00,25.4,19.2,22.61,West,269,0.0,21.0,77,0.00,,,0.00,Wunderground v.1.15,2013-04-01 09:33:00,
2013-04-01 03:35:00,25.4,19.2,22.61,WNW,282,0.0,21.0,77,0.00,,,0.00,Wunderground v.1.15,2013-04-01 09:35:00,
2013-04-01 03:39:00,25.4,19.2,22.61,WNW,283,0.0,21.0,77,0.00,,,0.00,Wunderground v.1.15,2013-04-01 09:39:00,
2013-04-01 03:43:00,25.3,19.1,22.61,WNW,283,0.0,21.0,77,0.00,,,0.00,Wunderground v.1.15,2013-04-01 09:43:00,
2013-04-01 03:45:00,25.2,19.0,22.60,WNW,282,0.0,21.0,77,0.00,,,0.00,Wunderground v.1.15,2013-04-01 09:45:00,
2013-04-01 03:47:00,25.1,18.9,22.60,WNW,282,0.0,21.0,77,0.00,,,0.00,Wunderground v.1.15,2013-04-01 09:47:00,
2013-04-01 03:49:00,25.0,18.8,22.60,WNW,283,0.0,21.0,77,0.00,,,0.00,Wunderground v.1.15,2013-04-01 09:49:00,
2013-04-01 03:55:00,24.8,18.9,22.60,West,271,0.0,21.0,78,0.00,,,0.00,Wunderground v.1.15,2013-04-01 09:55:00,
2013-04-01 03:59:00,24.7,18.8,22.60,West,271,0.0,21.0,78,0.00,,,0.00,Wunderground v.1.15,2013-04-01 09:59:00,
2013-04-01 04:02:00,24.5,18.6,22.60,West,271,0.0,21.0,78,0.00,,,0.00,Wunderground v.1.15,2013-04-01 10:02:00,
2013-04-01 04:08:00,24.4,18.8,22.60,West,271,0.0,21.0,79,0.00,,,0.00,Wunderground v.1.15,2013-04-01 10:08:00,
2013-04-01 04:09:00,24.5,18.9,22.60,West,274,0.0,21.0,79,0.00,,,0.00,Wunderground v.1.15,2013-04-01 10:09:00,
2013-04-01 04:13:00,24.5,18.9,22.60,NW,324,0.0,21.0,79,0.00,,,0.00,Wunderground v.1.15,2013-04-01 10:13:00,
2013-04-01 04:17:00,24.6,19.0,22.60,NW,323,0.0,21.0,79,0.00,,,0.00,Wunderground v.1.15,2013-04-01 10:17:00,
2013-04-01 04:19:00,24.6,19.0,22.60,NW,323,0.0,21.0,79,0.00,,,0.00,Wunderground v.1.15,2013-04-01 10:19:00,
2013-04-01 04:23:00,24.4,18.5,22.60,NW,323,0.0,21.0,78,0.00,,,0.00,Wunderground v.1.15,2013-04-01 10:23:00,
2013-04-01 04:28:00,24.2,18.6,22.59,NW,323,0.0,21.0,79,0.00,,,0.00,Wunderground v.1.15,2013-04-01 10:28:00,
2013-04-01 04:32:00,24.2,18.9,22.59,NW,323,0.0,21.0,80,0.00,,,0.00,Wunderground v.1.15,2013-04-01 10:32:00,
2013-04-01 04:36:00,24.1,18.5,22.59,NW,323,0.0,21.0,79,0.00,,,0.00,Wunderground v.1.15,2013-04-01 10:36:00,
2013-04-01 04:41:00,23.8,18.2,22.59,NE,43,0.0,21.0,79,0.00,,,0.00,Wunderground v.1.15,2013-04-01 10:41:00,
2013-04-01 04:45:00,23.8,18.5,22.59,NE,43,0.0,21.0,80,0.00,,,0.00,Wunderground v.1.15,2013-04-01 10:45:00,
2013-04-01 04:47:00,23.8,18.8,22.59,NE,43,0.0,21.0,81,0.00,,,0.00,Wunderground v.1.15,2013-04-01 10:47:00,
2013-04-01 04:49:00,23.8,18.5,22.59,WSW,256,0.0,21.0,80,0.00,,,0.00,Wunderground v.1.15,2013-04-01 10:49:00,
2013-04-01 04:51:00,23.7,18.4,22.59,WSW,256,0.0,21.0,80,0.00,,,0.00,Wunderground v.1.15,2013-04-01 10:51:00,
2013-04-01 04:57:00,23.6,18.6,22.59,NNW,330,0.0,21.0,81,0.00,,,0.00,Wunderground v.1.15,2013-04-01 10:57:00,
2013-04-01 04:59:00,23.6,18.6,22.59,NNW,330,0.0,21.0,81,0.00,,,0.00,Wunderground v.1.15,2013-04-01 10:59:00,
2013-04-01 05:02:00,23.6,18.3,22.59,NNW,330,0.0,21.0,80,0.00,,,0.00,Wunderground v.1.15,2013-04-01 11:02:00,
2013-04-01 05:05:00,23.5,18.2,22.59,NNW,330,0.0,21.0,80,0.00,,,0.00,Wunderground v.1.15,2013-04-01 11:05:00,
2013-04-01 05:11:00,23.1,18.1,22.59,NNW,330,0.0,21.0,81,0.00,,,0.00,Wunderground v.1.15,2013-04-01 11:11:00,
2013-04-01 05:13:00,23.0,18.0,22.59,NNW,330,0.0,21.0,81,0.00,,,0.00,Wunderground v.1.15,2013-04-01 11:13:00,
2013-04-01 05:15:00,23.0,18.0,22.59,NNW,330,0.0,21.0,81,0.00,,,0.00,Wunderground v.1.15,2013-04-01 11:15:00,
2013-04-01 05:21:00,22.9,18.2,22.59,NNW,330,0.0,21.0,82,0.00,,,0.00,Wunderground v.1.15,2013-04-01 11:21:00,
2013-04-01 05:27:00,23.1,18.4,22.59,NNW,330,0.0,21.0,82,0.00,,,0.00,Wunderground v.1.15,2013-04-01 11:27:00,
2013-04-01 05:29:00,23.1,18.4,22.59,NNW,330,0.0,21.0,82,0.00,,,0.00,Wunderground v.1.15,2013-04-01 11:29:00,
2013-04-01 05:31:00,23.1,18.1,22.59,NNW,330,0.0,21.0,81,0.00,,,0.00,Wunderground v.1.15,2013-04-01 11:31:00,
2013-04-01 05:35:00,23.1,18.4,22.59,NNW,330,0.0,21.0,82,0.00,,,0.00,Wunderground v.1.15,2013-04-01 11:35:00,
2013-04-01 05:39:00,23.2,18.5,22.58,NNW,330,0.0,21.0,82,0.00,,,0.00,Wunderground v.1.15,2013-04-01 11:39:00,
2013-04-01 05:43:00,22.9,17.9,22.58,WSW,253,0.0,21.0,81,0.00,,,0.00,Wunderground v.1.15,2013-04-01 11:43:00,
2013-04-01 05:46:00,22.7,17.7,22.58,WSW,253,0.0,21.0,81,0.00,,,0.00,Wunderground v.1.15,2013-04-01 11:46:00,
2013-04-01 05:50:00,22.4,17.7,22.58,WSW,253,0.0,21.0,82,0.00,,,0.00,Wunderground v.1.15,2013-04-01 11:50:00,
2013-04-01 05:54:00,22.1,17.7,22.59,WSW,254,0.0,21.0,83,0.00,,,0.00,Wunderground v.1.15,2013-04-01 11:54:00,
2013-04-01 05:56:00,22.0,17.6,22.58,WSW,253,0.0,21.0,83,0.00,,,0.00,Wunderground v.1.15,2013-04-01 11:56:00,
2013-04-01 05:57:00,22.0,17.6,22.58,WSW,253,0.0,21.0,83,0.00,,,0.00,Wunderground v.1.15,2013-04-01 11:57:00,
2013-04-01 06:01:00,22.1,18.0,22.58,WSW,253,0.0,21.0,84,0.00,,,0.00,Wunderground v.1.15,2013-04-01 12:01:00,
2013-04-01 06:03:00,22.1,17.7,22.58,WSW,253,0.0,21.0,83,0.00,,,0.00,Wunderground v.1.15,2013-04-01 12:03:00,
2013-04-01 06:07:00,22.1,18.0,22.58,WSW,253,0.0,21.0,84,0.00,,,0.00,Wunderground v.1.15,2013-04-01 12:07:00,
2013-04-01 06:09:00,22.1,17.7,22.58,WSW,253,0.0,21.0,83,0.00,,,0.00,Wunderground v.1.15,2013-04-01 12:09:00,
2013-04-01 06:16:00,21.9,17.5,22.59,WSW,254,0.0,21.0,83,0.00,,,0.00,Wunderground v.1.15,2013-04-01 12:16:00,
2013-04-01 06:18:00,21.9,17.5,22.59,WSW,254,0.0,21.0,83,0.00,,,0.00,Wunderground v.1.15,2013-04-01 12:18:00,
2013-04-01 06:22:00,21.7,17.3,22.58,WSW,253,0.0,21.0,83,0.00,,,0.00,Wunderground v.1.15,2013-04-01 12:22:00,
2013-04-01 06:24:00,21.6,17.5,22.58,WSW,253,0.0,21.0,84,0.00,,,0.00,Wunderground v.1.15,2013-04-01 12:24:00,
2013-04-01 06:27:00,21.6,17.8,22.58,WSW,253,0.0,21.0,85,0.00,,,0.00,Wunderground v.1.15,2013-04-01 12:27:00,
2013-04-01 06:29:00,21.7,17.6,22.58,WSW,254,0.0,21.0,84,0.00,,,0.00,Wunderground v.1.15,2013-04-01 12:29:00,
2013-04-01 06:33:00,21.7,17.6,22.58,WSW,253,0.0,21.0,84,0.00,,,0.00,Wunderground v.1.15,2013-04-01 12:33:00,
2013-04-01 06:37:00,21.6,17.5,22.58,WSW,254,0.0,21.0,84,0.00,,,0.00,Wunderground v.1.15,2013-04-01 12:37:00,
2013-04-01 06:44:00,21.2,17.1,22.58,WSW,253,0.0,21.0,84,0.00,,,0.00,Wunderground v.1.15,2013-04-01 12:44:00,
2013-04-01 06:46:00,21.0,16.6,22.58,WSW,254,0.0,21.0,83,0.00,,,0.00,Wunderground v.1.15,2013-04-01 12:46:00,
2013-04-01 06:52:00,20.9,17.1,22.58,WSW,253,0.0,21.0,85,0.00,,,0.00,Wunderground v.1.15,2013-04-01 12:52:00,
2013-04-01 06:54:00,21.0,17.2,22.58,WSW,253,0.0,21.0,85,0.00,,,0.00,Wunderground v.1.15,2013-04-01 12:54:00,
2013-04-01 06:59:00,21.1,17.3,22.58,WSW,253,0.0,21.0,85,0.00,,,0.00,Wunderground v.1.15,2013-04-01 12:59:00,
2013-04-01 07:01:00,21.1,17.3,22.58,WSW,254,0.0,21.0,85,0.00,,,0.00,Wunderground v.1.15,2013-04-01 13:01:00,
2013-04-01 07:03:00,21.2,17.4,22.58,WSW,253,0.0,21.0,85,0.00,,,0.00,Wunderground v.1.15,2013-04-01 13:03:00,
2013-04-01 07:07:00,21.4,17.9,22.58,WSW,253,0.0,21.0,86,0.00,,,0.00,Wunderground v.1.15,2013-04-01 13:07:00,
2013-04-01 07:09:00,21.4,17.6,22.58,WSW,253,0.0,21.0,85,0.00,,,0.00,Wunderground v.1.15,2013-04-01 13:09:00,
2013-04-01 07:11:00,21.4,17.6,22.58,WSW,253,0.0,21.0,85,0.00,,,0.00,Wunderground v.1.15,2013-04-01 13:11:00,
2013-04-01 07:15:00,21.4,17.6,22.59,WSW,253,0.0,21.0,85,0.00,,,0.00,Wunderground v.1.15,2013-04-01 13:15:00,
2013-04-01 07:17:00,21.5,18.0,22.59,WSW,253,0.0,21.0,86,0.00,,,0.00,Wunderground v.1.15,2013-04-01 13:17:00,
2013-04-01 07:22:00,21.6,17.8,22.59,WSW,254,0.0,21.0,85,0.00,,,0.00,Wunderground v.1.15,2013-04-01 13:22:00,
2013-04-01 07:24:00,21.5,17.7,22.59,WSW,254,0.0,21.0,85,0.00,,,0.00,Wunderground v.1.15,2013-04-01 13:24:00,
2013-04-01 07:28:00,21.6,17.8,22.59,WSW,254,0.0,21.0,85,0.00,,,0.00,Wunderground v.1.15,2013-04-01 13:28:00,
2013-04-01 07:30:00,21.7,18.2,22.59,WSW,253,0.0,21.0,86,0.00,,,0.00,Wunderground v.1.15,2013-04-01 13:30:00,
2013-04-01 07:34:00,22.1,18.6,22.59,WSW,253,0.0,21.0,86,0.00,,,0.00,Wunderground v.1.15,2013-04-01 13:34:00,
2013-04-01 07:36:00,22.7,19.1,22.59,WSW,253,0.0,21.0,86,0.00,,,0.00,Wunderground v.1.15,2013-04-01 13:36:00,
2013-04-01 07:39:00,24.3,20.4,22.59,WSW,254,0.0,21.0,85,0.00,,,0.00,Wunderground v.1.15,2013-04-01 13:39:00,
2013-04-01 07:45:00,26.0,20.7,22.59,WSW,253,0.0,21.0,80,0.00,,,0.00,Wunderground v.1.15,2013-04-01 13:45:00,
2013-04-01 07:49:00,26.8,20.9,22.59,WSW,253,0.0,21.0,78,0.00,,,0.00,Wunderground v.1.15,2013-04-01 13:49:00,
2013-04-01 07:51:00,27.1,21.2,22.59,WSW,254,0.0,21.0,78,0.00,,,0.00,Wunderground v.1.15,2013-04-01 13:51:00,
2013-04-01 07:56:00,29.0,22.1,22.59,WSW,253,0.0,21.0,75,0.00,,,0.00,Wunderground v.1.15,2013-04-01 13:56:00,
2013-04-01 08:02:00,30.9,21.9,22.59,South,169,0.0,21.0,69,0.00,,,0.00,Wunderground v.1.15,2013-04-01 14:02:00,
2013-04-01 08:04:00,30.9,21.9,22.59,SE,141,0.0,21.0,69,0.00,,,0.00,Wunderground v.1.15,2013-04-01 14:04:00,
2013-04-01 08:07:00,30.4,22.1,22.59,SE,141,0.0,21.0,71,0.00,,,0.00,Wunderground v.1.15,2013-04-01 14:07:00,
2013-04-01 08:11:00,29.7,21.8,22.59,SE,143,0.0,21.0,72,0.00,,,0.00,Wunderground v.1.15,2013-04-01 14:11:00,
2013-04-01 08:15:00,29.2,21.6,22.59,SE,141,0.0,21.0,73,0.00,,,0.00,Wunderground v.1.15,2013-04-01 14:15:00,
2013-04-01 08:17:00,29.1,21.8,22.59,SSE,152,0.0,21.0,74,0.00,,,0.00,Wunderground v.1.15,2013-04-01 14:17:00,
2013-04-01 08:20:00,29.1,21.8,22.59,SSE,152,0.0,21.0,74,0.00,,,0.00,Wunderground v.1.15,2013-04-01 14:20:00,
2013-04-01 08:21:00,29.2,21.9,22.59,SSE,152,0.0,21.0,74,0.00,,,0.00,Wunderground v.1.15,2013-04-01 14:21:00,
2013-04-01 08:28:00,30.4,23.1,22.59,South,181,0.0,21.0,74,0.00,,,0.00,Wunderground v.1.15,2013-04-01 14:28:00,
2013-04-01 08:32:00,30.8,22.8,22.59,South,181,0.0,21.0,72,0.00,,,0.00,Wunderground v.1.15,2013-04-01 14:32:00,
2013-04-01 08:33:00,31.0,22.7,22.59,SSE,165,0.0,21.0,71,0.00,,,0.00,Wunderground v.1.15,2013-04-01 14:33:00,
2013-04-01 08:37:00,31.6,23.3,22.59,SSW,193,0.0,21.0,71,0.00,,,0.00,Wunderground v.1.15,2013-04-01 14:37:00,
2013-04-01 08:39:00,31.8,23.5,22.58,SSW,203,1.0,21.0,71,0.00,,,0.00,Wunderground v.1.15,2013-04-01 14:39:00,
2013-04-01 08:45:00,32.5,23.5,22.58,South,191,1.0,21.0,69,0.00,,,0.00,Wunderground v.1.15,2013-04-01 14:45:00,
2013-04-01 08:50:00,33.1,23.7,22.58,SSW,195,1.0,21.0,68,0.00,,,0.00,Wunderground v.1.15,2013-04-01 14:50:00,
2013-04-01 08:53:00,33.7,23.9,22.58,South,190,1.0,21.0,67,0.00,,,0.00,Wunderground v.1.15,2013-04-01 14:53:00,
2013-04-01 08:56:00,34.1,24.3,22.58,South,177,1.0,21.0,67,0.00,,,0.00,Wunderground v.1.15,2013-04-01 14:56:00,
2013-04-01 09:00:00,34.5,23.9,22.58,South,174,2.0,21.0,65,0.00,,,0.00,Wunderground v.1.15,2013-04-01 15:00:00,
2013-04-01 09:04:00,34.9,23.9,22.58,SSE,167,2.0,21.0,64,0.00,,,0.00,Wunderground v.1.15,2013-04-01 15:04:00,
2013-04-01 09:06:00,35.1,23.4,22.58,SSW,209,2.0,21.0,62,0.00,,,0.00,Wunderground v.1.15,2013-04-01 15:06:00,
2013-04-01 09:09:00,35.3,23.6,22.58,SE,134,2.0,21.0,62,0.00,,,0.00,Wunderground v.1.15,2013-04-01 15:09:00,
2013-04-01 09:11:00,35.4,23.3,22.58,SSW,201,1.0,21.0,61,0.00,,,0.00,Wunderground v.1.15,2013-04-01 15:11:00,
2013-04-01 09:15:00,36.0,23.8,22.58,SSW,201,1.0,21.0,61,0.00,,,0.00,Wunderground v.1.15,2013-04-01 15:15:00,
2013-04-01 09:19:00,36.6,23.6,22.58,SSW,210,1.0,21.0,59,0.00,,,0.00,Wunderground v.1.15,2013-04-01 15:19:00,
2013-04-01 09:26:00,36.9,23.1,22.58,SSE,148,1.0,21.0,57,0.00,,,0.00,Wunderground v.1.15,2013-04-01 15:26:00,
2013-04-01 09:28:00,36.9,23.1,22.58,SE,134,1.0,21.0,57,0.00,,,0.00,Wunderground v.1.15,2013-04-01 15:28:00,
2013-04-01 09:33:00,37.0,23.2,22.58,SSE,160,1.0,21.0,57,0.00,,,0.00,Wunderground v.1.15,2013-04-01 15:33:00,
2013-04-01 09:35:00,37.1,23.3,22.58,SSW,200,1.0,21.0,57,0.00,,,0.00,Wunderground v.1.15,2013-04-01 15:35:00,
2013-04-01 09:37:00,37.2,23.4,22.57,ENE,70,1.0,21.0,57,0.00,,,0.00,Wunderground v.1.15,2013-04-01 15:37:00,
2013-04-01 09:42:00,37.5,23.2,22.57,WSW,252,1.0,21.0,56,0.00,,,0.00,Wunderground v.1.15,2013-04-01 15:42:00,
2013-04-01 09:45:00,37.8,23.1,22.57,NNE,19,1.0,21.0,55,0.00,,,0.00,Wunderground v.1.15,2013-04-01 15:45:00,
2013-04-01 09:47:00,37.9,23.2,22.57,North,8,1.0,21.0,55,0.00,,,0.00,Wunderground v.1.15,2013-04-01 15:47:00,
2013-04-01 09:49:00,37.9,22.7,22.57,North,11,1.0,21.0,54,0.00,,,0.00,Wunderground v.1.15,2013-04-01 15:49:00,
2013-04-01 09:51:00,37.9,23.2,22.57,East,92,2.0,21.0,55,0.00,,,0.00,Wunderground v.1.15,2013-04-01 15:51:00,
2013-04-01 09:53:00,37.9,22.7,22.57,South,173,2.0,21.0,54,0.00,,,0.00,Wunderground v.1.15,2013-04-01 15:53:00,
2013-04-01 09:57:00,38.2,23.0,22.57,SSW,204,2.0,21.0,54,0.00,,,0.00,Wunderground v.1.15,2013-04-01 15:57:00,
2013-04-01 10:01:00,38.5,22.8,22.57,ENE,63,2.0,21.0,53,0.00,,,0.00,Wunderground v.1.15,2013-04-01 16:01:00,
2013-04-01 10:08:00,39.0,23.3,22.57,SSW,194,1.0,21.0,53,0.00,,,0.00,Wunderground v.1.15,2013-04-01 16:08:00,
2013-04-01 10:10:00,39.1,23.4,22.56,ESE,122,1.0,21.0,53,0.00,,,0.00,Wunderground v.1.15,2013-04-01 16:10:00,
2013-04-01 10:15:00,39.7,23.5,22.56,SW,232,1.0,21.0,52,0.00,,,0.00,Wunderground v.1.15,2013-04-01 16:15:00,
2013-04-01 10:21:00,40.4,23.2,22.56,SSE,157,0.0,21.0,50,0.00,,,0.00,Wunderground v.1.15,2013-04-01 16:21:00,
2013-04-01 10:23:00,40.5,23.8,22.56,SE,124,0.0,21.0,51,0.00,,,0.00,Wunderground v.1.15,2013-04-01 16:23:00,
2013-04-01 10:30:00,41.3,24.0,22.56,South,188,0.0,21.0,50,0.00,,,0.00,Wunderground v.1.15,2013-04-01 16:30:00,
2013-04-01 10:32:00,41.2,23.5,22.56,SSW,207,1.0,21.0,49,0.00,,,0.00,Wunderground v.1.15,2013-04-01 16:32:00,
2013-04-01 10:37:00,41.1,23.9,22.56,South,179,1.0,21.0,50,0.00,,,0.00,Wunderground v.1.15,2013-04-01 16:37:00,
2013-04-01 10:39:00,41.3,24.0,22.56,SSW,207,1.0,21.0,50,0.00,,,0.00,Wunderground v.1.15,2013-04-01 16:39:00,
2013-04-01 10:45:00,41.3,23.6,22.56,SSW,198,1.0,21.0,49,0.00,,,0.00,Wunderground v.1.15,2013-04-01 16:45:00,
2013-04-01 10:47:00,41.3,23.6,22.56,SSW,194,1.0,21.0,49,0.00,,,0.00,Wunderground v.1.15,2013-04-01 16:47:00,
2013-04-01 10:52:00,42.0,24.2,22.56,West,274,1.0,21.0,49,0.00,,,0.00,Wunderground v.1.15,2013-04-01 16:52:00,
2013-04-01 10:54:00,42.4,24.6,22.55,North,9,1.0,21.0,49,0.00,,,0.00,Wunderground v.1.15,2013-04-01 16:54:00,
2013-04-01 10:56:00,42.8,24.4,22.56,WNW,298,1.0,21.0,48,0.00,,,0.00,Wunderground v.1.15,2013-04-01 16:56:00,
2013-04-01 11:02:00,42.6,23.8,22.55,SE,124,1.0,21.0,47,0.00,,,0.00,Wunderground v.1.15,2013-04-01 17:02:00,
2013-04-01 11:03:00,42.5,24.2,22.55,SSE,150,2.0,2.0,48,0.00,,,0.00,Wunderground v.1.15,2013-04-01 17:03:00,
2013-04-01 11:07:00,42.8,24.4,22.55,NE,53,2.0,21.0,48,0.00,,,0.00,Wunderground v.1.15,2013-04-01 17:07:00,
2013-04-01 11:09:00,42.8,24.4,22.55,WNW,298,2.0,21.0,48,0.00,,,0.00,Wunderground v.1.15,2013-04-01 17:09:00,
2013-04-01 11:13:00,42.7,24.4,22.55,SSE,155,2.0,2.0,48,0.00,,,0.00,Wunderground v.1.15,2013-04-01 17:13:00,
2013-04-01 11:17:00,42.9,25.0,22.55,SSE,148,3.0,21.0,49,0.00,,,0.00,Wunderground v.1.15,2013-04-01 17:17:00,
2013-04-01 11:21:00,43.7,25.3,22.55,West,273,2.0,21.0,48,0.00,,,0.00,Wunderground v.1.15,2013-04-01 17:21:00,
2013-04-01 11:23:00,44.1,25.1,22.55,North,4,1.0,21.0,47,0.00,,,0.00,Wunderground v.1.15,2013-04-01 17:23:00,
2013-04-01 11:30:00,44.4,25.4,22.54,ENE,67,1.0,21.0,47,0.00,,,0.00,Wunderground v.1.15,2013-04-01 17:30:00,
2013-04-01 11:32:00,44.3,25.3,22.54,SW,232,1.0,21.0,47,0.00,,,0.00,Wunderground v.1.15,2013-04-01 17:32:00,
2013-04-01 11:36:00,44.1,24.6,22.54,NW,326,2.0,21.0,46,0.00,,,0.00,Wunderground v.1.15,2013-04-01 17:36:00,
2013-04-01 11:37:00,44.0,24.5,22.54,NNE,29,2.0,21.0,46,0.00,,,0.00,Wunderground v.1.15,2013-04-01 17:37:00,
2013-04-01 11:41:00,43.8,24.9,22.54,NE,41,2.0,21.0,47,0.00,,,0.00,Wunderground v.1.15,2013-04-01 17:41:00,
2013-04-01 11:45:00,43.8,25.4,22.54,NNW,330,3.0,21.0,48,0.00,,,0.00,Wunderground v.1.15,2013-04-01 17:45:00,
2013-04-01 11:49:00,43.9,25.5,22.54,NE,37,3.0,21.0,48,0.00,,,0.00,Wunderground v.1.15,2013-04-01 17:49:00,
2013-04-01 11:51:00,43.9,25.5,22.54,ENE,60,3.0,21.0,48,0.00,,,0.00,Wunderground v.1.15,2013-04-01 17:51:00,
2013-04-01 11:53:00,43.9,25.5,22.54,ENE,63,3.0,21.0,48,0.00,,,0.00,Wunderground v.1.15,2013-04-01 17:53:00,
2013-04-01 11:56:00,43.9,26.0,22.54,NNW,342,3.0,21.0,49,0.00,,,0.00,Wunderground v.1.15,2013-04-01 17:56:00,
2013-04-01 11:58:00,44.0,26.0,22.54,NNE,19,3.0,21.0,49,0.00,,,0.00,Wunderground v.1.15,2013-04-01 17:58:00,
2013-04-01 12:04:00,44.0,26.5,22.53,WNW,298,3.0,21.0,50,0.00,,,0.00,Wunderground v.1.15,2013-04-01 18:04:00,
2013-04-01 12:06:00,44.0,26.5,22.53,NNE,27,3.0,21.0,50,0.00,,,0.00,Wunderground v.1.15,2013-04-01 18:06:00,
2013-04-01 12:11:00,44.0,26.5,22.53,North,358,3.0,21.0,50,0.00,,,0.00,Wunderground v.1.15,2013-04-01 18:11:00,
2013-04-01 12:13:00,43.9,26.9,22.53,ENE,60,4.0,21.0,51,0.00,,,0.00,Wunderground v.1.15,2013-04-01 18:13:00,
2013-04-01 12:15:00,43.9,26.4,22.53,NE,54,4.0,21.0,50,0.00,,,0.00,Wunderground v.1.15,2013-04-01 18:15:00,
2013-04-01 12:19:00,43.6,26.6,22.53,NE,47,4.0,21.0,51,0.00,,,0.00,Wunderground v.1.15,2013-04-01 18:19:00,
2013-04-01 12:21:00,43.5,26.6,22.53,North,11,4.0,21.0,51,0.00,,,0.00,Wunderground v.1.15,2013-04-01 18:21:00,
2013-04-01 12:23:00,43.5,27.0,22.53,NE,39,5.0,5.0,52,0.00,,,0.00,Wunderground v.1.15,2013-04-01 18:23:00,
2013-04-01 12:27:00,43.4,26.9,22.53,NE,54,4.0,21.0,52,0.00,,,0.00,Wunderground v.1.15,2013-04-01 18:27:00,
2013-04-01 12:30:00,43.4,26.9,22.53,ENE,77,4.0,21.0,52,0.00,,,0.00,Wunderground v.1.15,2013-04-01 18:30:00,
2013-04-01 12:36:00,43.1,27.1,22.53,East,101,4.0,21.0,53,0.00,,,0.00,Wunderground v.1.15,2013-04-01 18:36:00,
2013-04-01 12:39:00,42.7,26.7,22.53,NNW,339,5.0,21.0,53,0.00,,,0.00,Wunderground v.1.15,2013-04-01 18:39:00,
2013-04-01 12:41:00,42.5,27.0,22.53,North,9,5.0,21.0,54,0.00,,,0.00,Wunderground v.1.15,2013-04-01 18:41:00,
2013-04-01 12:49:00,42.1,27.1,22.53,NW,323,5.0,21.0,55,0.00,,,0.00,Wunderground v.1.15,2013-04-01 18:49:00,
2013-04-01 12:52:00,42.0,27.0,22.53,NNW,332,5.0,21.0,55,0.00,,,0.00,Wunderground v.1.15,2013-04-01 18:52:00,
2013-04-01 12:56:00,42.2,27.2,22.53,NNW,347,5.0,21.0,55,0.00,,,0.00,Wunderground v.1.15,2013-04-01 18:56:00,
2013-04-01 12:58:00,41.9,26.9,22.53,NNW,346,6.0,21.0,55,0.00,,,0.00,Wunderground v.1.15,2013-04-01 18:58:00,
2013-04-01 13:00:00,41.7,26.7,22.53,ENE,74,6.0,21.0,55,0.00,,,0.00,Wunderground v.1.15,2013-04-01 19:00:00,
2013-04-01 13:04:00,41.1,26.6,22.53,NNW,330,6.0,21.0,56,0.00,,,0.00,Wunderground v.1.15,2013-04-01 19:04:00,
2013-04-01 13:10:00,40.7,26.6,22.53,NW,326,6.0,21.0,57,0.00,,,0.00,Wunderground v.1.15,2013-04-01 19:10:00,
2013-04-01 13:11:00,40.6,26.5,22.53,NE,36,6.0,21.0,57,0.00,,,0.00,Wunderground v.1.15,2013-04-01 19:11:00,
2013-04-01 13:17:00,40.2,26.6,22.53,NNE,22,6.0,21.0,58,0.00,,,0.00,Wunderground v.1.15,2013-04-01 19:17:00,
2013-04-01 13:19:00,39.9,26.3,22.54,NNW,342,6.0,21.0,58,0.00,,,0.00,Wunderground v.1.15,2013-04-01 19:19:00,
2013-04-01 13:23:00,40.0,26.4,22.54,NNE,19,6.0,21.0,58,0.00,,,0.00,Wunderground v.1.15,2013-04-01 19:23:00,
2013-04-01 13:25:00,40.1,26.5,22.54,NW,323,6.0,21.0,58,0.00,,,0.00,Wunderground v.1.15,2013-04-01 19:25:00,
2013-04-01 13:29:00,40.2,26.2,22.54,NW,316,5.0,21.0,57,0.00,,,0.00,Wunderground v.1.15,2013-04-01 19:29:00,
2013-04-01 13:31:00,40.3,26.3,22.54,NNE,30,5.0,21.0,57,0.00,,,0.00,Wunderground v.1.15,2013-04-01 19:31:00,
2013-04-01 13:36:00,40.3,26.3,22.54,North,351,4.0,21.0,57,0.00,,,0.00,Wunderground v.1.15,2013-04-01 19:36:00,
2013-04-01 13:38:00,40.4,26.4,22.54,North,6,4.0,21.0,57,0.00,,,0.00,Wunderground v.1.15,2013-04-01 19:38:00,
2013-04-01 13:42:00,40.2,26.2,22.54,NW,305,4.0,21.0,57,0.00,,,0.00,Wunderground v.1.15,2013-04-01 19:42:00,
2013-04-01 13:46:00,40.0,26.0,22.54,NNW,330,5.0,21.0,57,0.00,,,0.00,Wunderground v.1.15,2013-04-01 19:46:00,
2013-04-01 13:48:00,40.0,26.4,22.54,North,354,6.0,21.0,58,0.00,,,0.00,Wunderground v.1.15,2013-04-01 19:48:00,
2013-04-01 13:50:00,40.1,26.5,22.54,NW,325,6.0,21.0,58,0.00,,,0.00,Wunderground v.1.15,2013-04-01 19:50:00,
2013-04-01 13:52:00,40.2,26.2,22.54,NNW,342,6.0,21.0,57,0.00,,,0.00,Wunderground v.1.15,2013-04-01 19:52:00,
2013-04-01 13:54:00,40.3,26.3,22.54,North,352,6.0,21.0,57,0.00,,,0.00,Wunderground v.1.15,2013-04-01 19:54:00,
2013-04-01 13:59:00,40.4,26.4,22.54,ENE,71,5.0,21.0,57,0.00,,,0.00,Wunderground v.1.15,2013-04-01 19:59:00,
2013-04-01 14:05:00,40.6,26.1,22.54,NE,34,4.0,5.0,56,0.00,,,0.00,Wunderground v.1.15,2013-04-01 20:05:00,
2013-04-01 14:07:00,40.8,26.7,22.54,North,352,5.0,6.0,57,0.00,,,0.00,Wunderground v.1.15,2013-04-01 20:07:00,
2013-04-01 14:09:00,41.3,26.8,22.54,North,6,4.0,21.0,56,0.00,,,0.00,Wunderground v.1.15,2013-04-01 20:09:00,
2013-04-01 14:16:00,41.7,26.7,22.53,NE,53,4.0,21.0,55,0.00,,,0.00,Wunderground v.1.15,2013-04-01 20:16:00,
2013-04-01 14:18:00,41.7,26.3,22.53,ENE,63,4.0,21.0,54,0.00,,,0.00,Wunderground v.1.15,2013-04-01 20:18:00,
2013-04-01 14:23:00,42.1,26.2,22.53,NNW,330,4.0,4.0,53,0.00,,,0.00,Wunderground v.1.15,2013-04-01 20:23:00,
2013-04-01 14:26:00,42.5,27.0,22.53,NNW,336,3.0,6.0,54,0.00,,,0.00,Wunderground v.1.15,2013-04-01 20:26:00,
2013-04-01 14:30:00,43.0,26.6,22.53,NNW,339,3.0,21.0,52,0.00,,,0.00,Wunderground v.1.15,2013-04-01 20:30:00,
2013-04-01 14:32:00,43.2,26.7,22.53,North,1,3.0,21.0,52,0.00,,,0.00,Wunderground v.1.15,2013-04-01 20:32:00,
2013-04-01 14:35:00,43.9,26.9,22.53,North,9,3.0,7.0,51,0.00,,,0.00,Wunderground v.1.15,2013-04-01 20:35:00,
2013-04-01 14:37:00,44.1,27.1,22.53,ENE,70,4.0,21.0,51,0.00,,,0.00,Wunderground v.1.15,2013-04-01 20:37:00,
2013-04-01 14:43:00,45.2,27.2,22.52,NW,326,4.0,4.0,49,0.00,,,0.00,Wunderground v.1.15,2013-04-01 20:43:00,
2013-04-01 14:50:00,45.4,27.3,22.52,NNE,23,4.0,21.0,49,0.00,,,0.00,Wunderground v.1.15,2013-04-01 20:50:00,
2013-04-01 14:52:00,45.3,27.2,22.52,ENE,63,4.0,21.0,49,0.00,,,0.00,Wunderground v.1.15,2013-04-01 20:52:00,
2013-04-01 14:58:00,45.2,27.2,22.52,North,350,4.0,21.0,49,0.00,,,0.00,Wunderground v.1.15,2013-04-01 20:58:00,
2013-04-01 14:59:00,45.2,27.2,22.52,WNW,302,4.0,21.0,49,0.00,,,0.00,Wunderground v.1.15,2013-04-01 20:59:00,
2013-04-01 15:01:00,45.4,27.3,22.52,ENE,74,4.0,21.0,49,0.00,,,0.00,Wunderground v.1.15,2013-04-01 21:01:00,
2013-04-01 15:05:00,45.6,27.0,22.52,ENE,60,3.0,21.0,48,0.00,,,0.00,Wunderground v.1.15,2013-04-01 21:05:00,
2013-04-01 15:07:00,45.4,26.8,22.52,WNW,296,4.0,21.0,48,0.00,,,0.00,Wunderground v.1.15,2013-04-01 21:07:00,
2013-04-01 15:14:00,45.1,26.6,22.52,North,351,4.0,4.0,48,0.00,,,0.00,Wunderground v.1.15,2013-04-01 21:14:00,
2013-04-01 15:18:00,45.3,26.7,22.51,ENE,67,4.0,21.0,48,0.00,,,0.00,Wunderground v.1.15,2013-04-01 21:18:00,
2013-04-01 15:20:00,45.1,26.6,22.51,NW,324,4.0,21.0,48,0.00,,,0.00,Wunderground v.1.15,2013-04-01 21:20:00,
2013-04-01 15:22:00,44.9,26.9,22.51,North,6,4.0,21.0,49,0.00,,,0.00,Wunderground v.1.15,2013-04-01 21:22:00,
2013-04-01 15:26:00,45.1,27.1,22.52,ENE,64,4.0,21.0,49,0.00,,,0.00,Wunderground v.1.15,2013-04-01 21:26:00,
2013-04-01 15:28:00,45.2,26.7,22.51,NNW,334,4.0,21.0,48,0.00,,,0.00,Wunderground v.1.15,2013-04-01 21:28:00,
2013-04-01 15:33:00,44.8,26.8,22.51,ENE,58,4.0,21.0,49,0.00,,,0.00,Wunderground v.1.15,2013-04-01 21:33:00,
2013-04-01 15:35:00,44.8,26.8,22.51,ENE,63,4.0,21.0,49,0.00,,,0.00,Wunderground v.1.15,2013-04-01 21:35:00,
2013-04-01 15:39:00,44.7,26.7,22.51,NNW,336,4.0,21.0,49,0.00,,,0.00,Wunderground v.1.15,2013-04-01 21:39:00,
2013-04-01 15:41:00,44.5,27.0,22.52,NE,50,4.0,21.0,50,0.00,,,0.00,Wunderground v.1.15,2013-04-01 21:41:00,
2013-04-01 15:43:00,44.4,26.9,22.52,NNE,26,3.0,21.0,50,0.00,,,0.00,Wunderground v.1.15,2013-04-01 21:43:00,
2013-04-01 15:45:00,44.2,26.7,22.52,ENE,67,3.0,21.0,50,0.00,,,0.00,Wunderground v.1.15,2013-04-01 21:45:00,
2013-04-01 15:52:00,43.6,27.1,22.52,NE,41,3.0,21.0,52,0.00,,,0.00,Wunderground v.1.15,2013-04-01 21:52:00,
2013-04-01 15:58:00,43.0,27.5,22.52,ENE,77,3.0,21.0,54,0.00,,,0.00,Wunderground v.1.15,2013-04-01 21:58:00,
2013-04-01 16:02:00,42.6,27.5,22.52,ENE,61,3.0,21.0,55,0.00,,,0.00,Wunderground v.1.15,2013-04-01 22:02:00,
2013-04-01 16:04:00,42.3,28.6,22.52,North,350,3.0,3.0,58,0.00,,,0.00,Wunderground v.1.15,2013-04-01 22:04:00,
2013-04-01 16:09:00,41.6,29.9,22.52,ENE,58,3.0,21.0,63,0.00,,,0.00,Wunderground v.1.15,2013-04-01 22:09:00,
2013-04-01 16:11:00,41.3,30.0,22.52,SE,129,3.0,21.0,64,0.00,,,0.00,Wunderground v.1.15,2013-04-01 22:11:00,
2013-04-01 16:15:00,41.0,29.4,22.52,NNE,26,3.0,4.0,63,0.00,,,0.00,Wunderground v.1.15,2013-04-01 22:15:00,
2013-04-01 16:17:00,40.8,29.6,22.52,NE,46,3.0,6.0,64,0.00,,,0.00,Wunderground v.1.15,2013-04-01 22:17:00,
2013-04-01 16:22:00,40.4,29.6,22.53,NNW,344,3.0,21.0,65,0.00,,,0.00,Wunderground v.1.15,2013-04-01 22:22:00,
2013-04-01 16:28:00,40.0,29.2,22.53,East,83,3.0,21.0,65,0.00,,,0.00,Wunderground v.1.15,2013-04-01 22:28:00,
2013-04-01 16:30:00,39.9,29.5,22.53,NNW,337,2.0,21.0,66,0.00,,,0.00,Wunderground v.1.15,2013-04-01 22:30:00,
2013-04-01 16:35:00,39.8,29.4,22.53,ESE,115,3.0,21.0,66,0.00,,,0.00,Wunderground v.1.15,2013-04-01 22:35:00,
2013-04-01 16:37:00,39.8,29.4,22.53,North,9,3.0,21.0,66,0.00,,,0.00,Wunderground v.1.15,2013-04-01 22:37:00,
2013-04-01 16:43:00,39.4,30.1,22.53,North,358,3.0,21.0,69,0.00,,,0.00,Wunderground v.1.15,2013-04-01 22:43:00,
2013-04-01 16:45:00,39.3,30.0,22.53,North,1,3.0,21.0,69,0.00,,,0.00,Wunderground v.1.15,2013-04-01 22:45:00,
2013-04-01 16:50:00,39.0,31.4,22.53,NE,34,3.0,21.0,74,0.00,,,0.00,Wunderground v.1.15,2013-04-01 22:50:00,
2013-04-01 16:54:00,38.7,31.1,22.53,NNE,22,3.0,3.0,74,0.00,,,0.00,Wunderground v.1.15,2013-04-01 22:54:00,
2013-04-01 16:56:00,38.6,30.7,22.53,ENE,63,3.0,21.0,73,0.00,,,0.00,Wunderground v.1.15,2013-04-01 22:56:00,
2013-04-01 17:02:00,38.2,30.6,22.53,NNW,344,3.0,21.0,74,0.00,,,0.00,Wunderground v.1.15,2013-04-01 23:02:00,
2013-04-01 17:03:00,38.1,30.9,22.54,NNW,336,3.0,21.0,75,0.00,,,0.00,Wunderground v.1.15,2013-04-01 23:03:00,
2013-04-01 17:05:00,37.9,31.0,22.53,NNW,331,2.0,21.0,76,0.00,,,0.00,Wunderground v.1.15,2013-04-01 23:05:00,
2013-04-01 17:11:00,37.5,31.9,22.53,NNE,12,3.0,21.0,80,0.00,,,0.00,Wunderground v.1.15,2013-04-01 23:11:00,
2013-04-01 17:14:00,37.4,30.5,22.53,North,351,3.0,21.0,76,0.00,,,0.00,Wunderground v.1.15,2013-04-01 23:14:00,
2013-04-01 17:15:00,37.3,30.7,22.53,NNW,333,3.0,21.0,77,0.00,,,0.00,Wunderground v.1.15,2013-04-01 23:15:00,
2013-04-01 17:20:00,37.2,30.7,22.53,North,6,3.0,21.0,77,0.00,,,0.00,Wunderground v.1.15,2013-04-01 23:20:00,
2013-04-01 17:25:00,37.3,31.1,22.53,ENE,60,3.0,21.0,78,0.00,,,0.00,Wunderground v.1.15,2013-04-01 23:25:00,
2013-04-01 17:28:00,37.2,31.3,22.53,NW,321,3.0,21.0,79,0.00,,,0.00,Wunderground v.1.15,2013-04-01 23:28:00,
2013-04-01 17:33:00,36.9,31.3,22.53,SE,131,3.0,21.0,80,0.00,,,0.00,Wunderground v.1.15,2013-04-01 23:33:00,
2013-04-01 17:35:00,36.9,31.3,22.53,SE,139,3.0,21.0,80,0.00,,,0.00,Wunderground v.1.15,2013-04-01 23:35:00,
2013-04-01 17:39:00,36.8,30.9,22.54,NW,304,3.0,21.0,79,0.00,,,0.00,Wunderground v.1.15,2013-04-01 23:39:00,
2013-04-01 17:41:00,36.8,31.2,22.54,East,95,2.0,21.0,80,0.00,,,0.00,Wunderground v.1.15,2013-04-01 23:41:00,
2013-04-01 17:43:00,36.7,30.8,22.54,ESE,108,3.0,3.0,79,0.00,,,0.00,Wunderground v.1.15,2013-04-01 23:43:00,
2013-04-01 17:48:00,36.7,29.8,22.54,NNE,29,3.0,21.0,76,0.00,,,0.00,Wunderground v.1.15,2013-04-01 23:48:00,
2013-04-01 17:50:00,36.8,30.3,22.53,SSW,210,2.0,21.0,77,0.00,,,0.00,Wunderground v.1.15,2013-04-01 23:50:00,
2013-04-01 17:52:00,36.9,30.4,22.53,ENE,58,2.0,21.0,77,0.00,,,0.00,Wunderground v.1.15,2013-04-01 23:52:00,
2013-04-01 17:55:00,37.1,29.6,22.53,NE,51,2.0,21.0,74,0.00,,,0.00,Wunderground v.1.15,2013-04-01 23:55:00,
2013-04-01 17:58:00,37.1,29.9,22.53,ENE,74,2.0,21.0,75,0.00,,,0.00,Wunderground v.1.15,2013-04-01 23:58:00,
2013-04-01 18:01:00,37.2,29.3,22.53,SE,141,1.0,21.0,73,0.00,,,0.00,Wunderground v.1.15,2013-04-02 00:01:00,
2013-04-01 18:03:00,37.1,29.2,22.53,ENE,68,1.0,1.0,73,0.00,,,0.00,Wunderground v.1.15,2013-04-02 00:03:00,
2013-04-01 18:05:00,37.1,29.9,22.53,NNW,339,1.0,21.0,75,0.00,,,0.00,Wunderground v.1.15,2013-04-02 00:05:00,
2013-04-01 18:09:00,36.9,30.7,22.53,ENE,78,1.0,21.0,78,0.00,,,0.00,Wunderground v.1.15,2013-04-02 00:09:00,
2013-04-01 18:14:00,36.5,30.6,22.54,NNW,333,2.0,2.0,79,0.00,,,0.00,Wunderground v.1.15,2013-04-02 00:14:00,
2013-04-01 18:20:00,36.3,30.7,22.54,NW,323,2.0,21.0,80,0.00,,,0.00,Wunderground v.1.15,2013-04-02 00:20:00,
2013-04-01 18:25:00,36.3,30.7,22.53,NNW,345,2.0,21.0,80,0.00,,,0.00,Wunderground v.1.15,2013-04-02 00:25:00,
2013-04-01 18:27:00,36.2,30.6,22.54,NW,320,2.0,21.0,80,0.00,,,0.00,Wunderground v.1.15,2013-04-02 00:27:00,
2013-04-01 18:29:00,36.1,30.8,22.54,North,356,2.0,21.0,81,0.00,,,0.00,Wunderground v.1.15,2013-04-02 00:29:00,
2013-04-01 18:32:00,36.0,30.7,22.54,NNW,343,2.0,21.0,81,0.00,,,0.00,Wunderground v.1.15,2013-04-02 00:32:00,
2013-04-01 18:35:00,35.9,30.9,22.54,NNW,339,2.0,21.0,82,0.00,,,0.00,Wunderground v.1.15,2013-04-02 00:35:00,
2013-04-01 18:37:00,35.8,30.8,22.54,NNE,25,1.0,21.0,82,0.00,,,0.00,Wunderground v.1.15,2013-04-02 00:37:00,
2013-04-01 18:39:00,35.7,30.4,22.54,NNW,329,1.0,21.0,81,0.00,,,0.00,Wunderground v.1.15,2013-04-02 00:39:00,
2013-04-01 18:41:00,35.7,30.7,22.54,NW,309,2.0,21.0,82,0.00,,,0.00,Wunderground v.1.15,2013-04-02 00:41:00,
2013-04-01 18:44:00,35.6,30.9,22.54,NE,51,2.0,21.0,83,0.00,,,0.00,Wunderground v.1.15,2013-04-02 00:44:00,
2013-04-01 18:46:00,35.5,30.2,22.54,NE,51,2.0,21.0,81,0.00,,,0.00,Wunderground v.1.15,2013-04-02 00:46:00,
2013-04-01 18:52:00,35.2,30.3,22.54,ENE,69,1.0,21.0,82,0.00,,,0.00,Wunderground v.1.15,2013-04-02 00:52:00,
2013-04-01 18:54:00,35.1,30.2,22.54,ENE,70,1.0,1.0,82,0.00,,,0.00,Wunderground v.1.15,2013-04-02 00:54:00,
2013-04-01 18:57:00,34.9,30.3,22.54,SE,124,1.0,21.0,83,0.00,,,0.01,Wunderground v.1.15,2013-04-02 00:57:00,
2013-04-01 19:03:00,34.7,30.1,22.54,ESE,122,1.0,21.0,83,0.00,,,0.01,Wunderground v.1.15,2013-04-02 01:03:00,
2013-04-01 19:05:00,34.7,30.4,22.54,SE,127,1.0,21.0,84,0.00,,,0.01,Wunderground v.1.15,2013-04-02 01:05:00,
2013-04-01 19:07:00,34.7,30.4,22.54,NE,46,0.0,21.0,84,0.00,,,0.01,Wunderground v.1.15,2013-04-02 01:07:00,
2013-04-01 19:11:00,34.6,30.6,22.54,NNE,22,1.0,21.0,85,0.00,,,0.01,Wunderground v.1.15,2013-04-02 01:11:00,
2013-04-01 19:18:00,34.3,30.5,22.55,WNW,301,2.0,21.0,86,0.00,,,0.01,Wunderground v.1.15,2013-04-02 01:18:00,
2013-04-01 19:23:00,34.1,30.4,22.55,NW,322,2.0,2.0,86,0.00,,,0.01,Wunderground v.1.15,2013-04-02 01:23:00,
2013-04-01 19:27:00,34.1,30.4,22.55,WNW,301,1.0,21.0,86,0.00,,,0.01,Wunderground v.1.15,2013-04-02 01:27:00,
2013-04-01 19:29:00,34.1,30.4,22.55,WNW,301,1.0,21.0,86,0.00,,,0.01,Wunderground v.1.15,2013-04-02 01:29:00,
2013-04-01 19:31:00,34.1,30.4,22.56,North,356,1.0,21.0,86,0.00,,,0.01,Wunderground v.1.15,2013-04-02 01:31:00,
2013-04-01 19:36:00,34.0,30.3,22.56,NNW,343,0.0,21.0,86,0.00,,,0.01,Wunderground v.1.15,2013-04-02 01:36:00,
2013-04-01 19:38:00,33.9,30.4,22.56,NNE,22,1.0,21.0,87,0.00,,,0.01,Wunderground v.1.15,2013-04-02 01:38:00,
2013-04-01 19:42:00,33.6,30.1,22.54,ENE,68,2.0,21.0,87,0.00,,,0.01,Wunderground v.1.15,2013-04-02 01:42:00,
2013-04-01 19:43:00,33.5,30.3,22.54,NW,308,2.0,2.0,88,0.00,,,0.01,Wunderground v.1.15,2013-04-02 01:43:00,
2013-04-01 19:49:00,33.1,30.2,22.55,NNW,332,2.0,21.0,89,0.00,,,0.01,Wunderground v.1.15,2013-04-02 01:49:00,
2013-04-01 19:51:00,33.0,30.1,22.55,NNW,333,2.0,21.0,89,0.00,,,0.01,Wunderground v.1.15,2013-04-02 01:51:00,
2013-04-01 19:55:00,32.8,30.2,22.55,NW,309,1.0,21.0,90,0.00,,,0.01,Wunderground v.1.15,2013-04-02 01:55:00,
2013-04-01 20:00:00,32.6,30.0,22.55,NW,319,1.0,21.0,90,0.00,,,0.01,Wunderground v.1.15,2013-04-02 02:00:00,
2013-04-01 20:04:00,32.4,30.1,22.55,ENE,65,1.0,21.0,91,0.00,,,0.01,Wunderground v.1.15,2013-04-02 02:04:00,
2013-04-01 20:06:00,32.4,30.1,22.55,NW,325,1.0,21.0,91,0.00,,,0.01,Wunderground v.1.15,2013-04-02 02:06:00,
2013-04-01 20:09:00,32.2,29.9,22.55,NE,54,1.0,21.0,91,0.00,,,0.01,Wunderground v.1.15,2013-04-02 02:09:00,
2013-04-01 20:12:00,32.2,29.9,22.56,ENE,63,1.0,21.0,91,0.00,,,0.01,Wunderground v.1.15,2013-04-02 02:12:00,
2013-04-01 20:15:00,32.2,30.1,22.56,ENE,72,0.0,21.0,92,0.00,,,0.01,Wunderground v.1.15,2013-04-02 02:15:00,
2013-04-01 20:17:00,32.2,30.1,22.56,NE,43,0.0,21.0,92,0.00,,,0.01,Wunderground v.1.15,2013-04-02 02:17:00,
2013-04-01 20:19:00,32.2,30.1,22.56,North,353,0.0,21.0,92,0.00,,,0.01,Wunderground v.1.15,2013-04-02 02:19:00,
2013-04-01 20:26:00,32.1,30.0,22.55,ENE,60,0.0,21.0,92,0.00,,,0.01,Wunderground v.1.15,2013-04-02 02:26:00,
2013-04-01 20:28:00,32.1,30.0,22.55,ENE,67,0.0,21.0,92,0.00,,,0.01,Wunderground v.1.15,2013-04-02 02:28:00,
2013-04-01 20:32:00,32.1,30.0,22.56,ENE,67,0.0,21.0,92,0.00,,,0.01,Wunderground v.1.15,2013-04-02 02:32:00,
2013-04-01 20:34:00,32.1,30.0,22.55,NW,323,0.0,21.0,92,0.00,,,0.01,Wunderground v.1.15,2013-04-02 02:34:00,
2013-04-01 20:36:00,32.1,30.0,22.55,NNW,343,0.0,21.0,92,0.00,,,0.01,Wunderground v.1.15,2013-04-02 02:36:00,
2013-04-01 20:39:00,32.0,29.9,22.56,North,9,1.0,21.0,92,0.00,,,0.01,Wunderground v.1.15,2013-04-02 02:39:00,
2013-04-01 20:45:00,32.1,30.0,22.56,NW,319,1.0,21.0,92,0.00,,,0.01,Wunderground v.1.15,2013-04-02 02:45:00,
2013-04-01 20:49:00,32.0,29.9,22.56,NNW,340,1.0,21.0,92,0.00,,,0.01,Wunderground v.1.15,2013-04-02 02:49:00,
2013-04-01 20:52:00,32.0,29.9,22.56,ENE,70,1.0,21.0,92,0.00,,,0.01,Wunderground v.1.15,2013-04-02 02:52:00,
2013-04-01 20:56:00,32.0,29.9,22.57,NNW,339,1.0,21.0,92,0.00,,,0.01,Wunderground v.1.15,2013-04-02 02:56:00,
2013-04-01 21:00:00,32.0,30.2,22.57,NE,50,1.0,21.0,93,0.00,,,0.01,Wunderground v.1.15,2013-04-02 03:00:00,
2013-04-01 21:03:00,32.0,30.2,22.57,ENE,68,1.0,1.0,93,0.00,,,0.01,Wunderground v.1.15,2013-04-02 03:03:00,
2013-04-01 21:05:00,32.0,30.2,22.57,NNW,338,1.0,21.0,93,0.00,,,0.01,Wunderground v.1.15,2013-04-02 03:05:00,
2013-04-01 21:11:00,31.8,30.0,22.56,NW,307,1.0,21.0,93,0.00,,,0.01,Wunderground v.1.15,2013-04-02 03:11:00,
2013-04-01 21:18:00,31.7,29.9,22.56,NW,308,1.0,21.0,93,0.00,,,0.01,Wunderground v.1.15,2013-04-02 03:18:00,
2013-04-01 21:20:00,31.7,29.9,22.57,NNE,22,1.0,21.0,93,0.00,,,0.01,Wunderground v.1.15,2013-04-02 03:20:00,
2013-04-01 21:22:00,31.7,29.9,22.57,NNW,335,1.0,21.0,93,0.00,,,0.01,Wunderground v.1.15,2013-04-02 03:22:00,
2013-04-01 21:24:00,31.7,29.9,22.57,NNW,327,1.0,21.0,93,0.00,,,0.01,Wunderground v.1.15,2013-04-02 03:24:00,
2013-04-01 21:26:00,31.7,29.9,22.57,North,11,1.0,21.0,93,0.00,,,0.01,Wunderground v.1.15,2013-04-02 03:26:00,
2013-04-01 21:28:00,31.6,29.8,22.57,NW,319,1.0,21.0,93,0.00,,,0.01,Wunderground v.1.15,2013-04-02 03:28:00,
2013-04-01 21:32:00,31.6,29.8,22.57,North,4,1.0,21.0,93,0.00,,,0.01,Wunderground v.1.15,2013-04-02 03:32:00,
2013-04-01 21:34:00,31.6,29.8,22.57,NW,322,1.0,1.0,93,0.00,,,0.01,Wunderground v.1.15,2013-04-02 03:34:00,
2013-04-01 21:38:00,31.6,29.8,22.57,NW,307,1.0,21.0,93,0.00,,,0.01,Wunderground v.1.15,2013-04-02 03:38:00,
2013-04-01 21:43:00,31.5,29.7,22.57,NNW,330,1.0,21.0,93,0.00,,,0.01,Wunderground v.1.15,2013-04-02 03:43:00,
2013-04-01 21:47:00,31.4,29.6,22.57,NNW,347,1.0,21.0,93,0.00,,,0.01,Wunderground v.1.15,2013-04-02 03:47:00,
2013-04-01 21:49:00,31.3,29.5,22.57,East,95,1.0,21.0,93,0.00,,,0.01,Wunderground v.1.15,2013-04-02 03:49:00,
2013-04-01 21:53:00,31.4,29.6,22.57,ENE,67,1.0,21.0,93,0.00,,,0.01,Wunderground v.1.15,2013-04-02 03:53:00,
2013-04-01 21:58:00,31.4,29.6,22.57,ENE,67,0.0,21.0,93,0.00,,,0.01,Wunderground v.1.15,2013-04-02 03:58:00,
2013-04-01 22:00:00,31.4,29.6,22.57,SE,133,0.0,21.0,93,0.00,,,0.01,Wunderground v.1.15,2013-04-02 04:00:00,
2013-04-01 22:04:00,31.4,29.6,22.57,SE,133,0.0,21.0,93,0.00,,,0.01,Wunderground v.1.15,2013-04-02 04:04:00,
2013-04-01 22:05:00,31.4,29.6,22.57,SE,131,0.0,21.0,93,0.00,,,0.01,Wunderground v.1.15,2013-04-02 04:05:00,
2013-04-01 22:11:00,31.3,29.5,22.57,ENE,64,0.0,21.0,93,0.00,,,0.01,Wunderground v.1.15,2013-04-02 04:11:00,
2013-04-01 22:13:00,31.3,29.5,22.57,ESE,104,0.0,21.0,93,0.00,,,0.01,Wunderground v.1.15,2013-04-02 04:13:00,
2013-04-01 22:18:00,31.2,29.4,22.57,ESE,105,0.0,21.0,93,0.00,,,0.01,Wunderground v.1.15,2013-04-02 04:18:00,
2013-04-01 22:20:00,31.2,29.4,22.57,ESE,104,0.0,21.0,93,0.00,,,0.01,Wunderground v.1.15,2013-04-02 04:20:00,
2013-04-01 22:22:00,31.2,29.4,22.57,ESE,105,0.0,21.0,93,0.00,,,0.01,Wunderground v.1.15,2013-04-02 04:22:00,
2013-04-01 22:24:00,31.3,29.5,22.57,NE,53,0.0,21.0,93,0.00,,,0.01,Wunderground v.1.15,2013-04-02 04:24:00,
2013-04-01 22:28:00,31.3,29.5,22.57,NE,53,0.0,21.0,93,0.00,,,0.01,Wunderground v.1.15,2013-04-02 04:28:00,
2013-04-01 22:30:00,31.4,29.6,22.57,NE,53,0.0,21.0,93,0.00,,,0.01,Wunderground v.1.15,2013-04-02 04:30:00,
2013-04-01 22:31:00,31.3,29.5,22.57,ESE,110,0.0,21.0,93,0.00,,,0.01,Wunderground v.1.15,2013-04-02 04:31:00,
2013-04-01 22:37:00,31.3,29.5,22.56,ESE,115,0.0,21.0,93,0.00,,,0.01,Wunderground v.1.15,2013-04-02 04:37:00,
2013-04-01 22:39:00,31.3,29.5,22.57,East,94,0.0,21.0,93,0.00,,,0.01,Wunderground v.1.15,2013-04-02 04:39:00,
2013-04-01 22:44:00,31.3,29.5,22.56,ENE,77,0.0,21.0,93,0.00,,,0.01,Wunderground v.1.15,2013-04-02 04:44:00,
2013-04-01 22:48:00,31.1,29.3,22.55,SE,126,0.0,21.0,93,0.00,,,0.01,Wunderground v.1.15,2013-04-02 04:48:00,
2013-04-01 22:49:00,31.1,29.3,22.56,WSW,256,0.0,21.0,93,0.00,,,0.01,Wunderground v.1.15,2013-04-02 04:49:00,
2013-04-01 22:51:00,31.1,29.3,22.56,North,4,0.0,21.0,93,0.00,,,0.01,Wunderground v.1.15,2013-04-02 04:51:00,
2013-04-01 22:53:00,31.0,29.2,22.56,North,6,0.0,21.0,93,0.00,,,0.01,Wunderground v.1.15,2013-04-02 04:53:00,
2013-04-01 22:58:00,31.0,29.2,22.55,ENE,63,0.0,21.0,93,0.00,,,0.01,Wunderground v.1.15,2013-04-02 04:58:00,
2013-04-01 23:00:00,30.9,29.1,22.55,East,79,0.0,21.0,93,0.00,,,0.01,Wunderground v.1.15,2013-04-02 05:00:00,
2013-04-01 23:05:00,30.9,29.1,22.56,North,357,0.0,21.0,93,0.00,,,0.01,Wunderground v.1.15,2013-04-02 05:05:00,
2013-04-01 23:08:00,30.8,29.0,22.55,North,358,0.0,21.0,93,0.00,,,0.01,Wunderground v.1.15,2013-04-02 05:08:00,
2013-04-01 23:12:00,30.8,29.0,22.55,NE,43,0.0,21.0,93,0.00,,,0.01,Wunderground v.1.15,2013-04-02 05:12:00,
2013-04-01 23:15:00,30.8,29.0,22.56,ENE,60,0.0,21.0,93,0.00,,,0.01,Wunderground v.1.15,2013-04-02 05:15:00,
2013-04-01 23:17:00,30.8,29.0,22.56,ESE,114,0.0,21.0,93,0.00,,,0.01,Wunderground v.1.15,2013-04-02 05:17:00,
2013-04-01 23:23:00,30.7,28.9,22.56,ESE,115,0.0,21.0,93,0.00,,,0.01,Wunderground v.1.15,2013-04-02 05:23:00,
2013-04-01 23:28:00,30.7,28.9,22.56,ESE,114,0.0,21.0,93,0.00,,,0.01,Wunderground v.1.15,2013-04-02 05:28:00,
2013-04-01 23:30:00,30.7,28.9,22.55,ESE,114,0.0,21.0,93,0.00,,,0.01,Wunderground v.1.15,2013-04-02 05:30:00,
2013-04-01 23:32:00,30.7,28.9,22.55,ESE,115,0.0,21.0,93,0.00,,,0.01,Wunderground v.1.15,2013-04-02 05:32:00,
2013-04-01 23:36:00,30.6,28.8,22.55,ESE,115,0.0,21.0,93,0.00,,,0.01,Wunderground v.1.15,2013-04-02 05:36:00,
2013-04-01 23:38:00,30.6,28.8,22.55,ESE,114,0.0,21.0,93,0.00,,,0.01,Wunderground v.1.15,2013-04-02 05:38:00,
2013-04-01 23:41:00,30.6,28.8,22.55,ESE,115,0.0,21.0,93,0.00,,,0.01,Wunderground v.1.15,2013-04-02 05:41:00,
2013-04-01 23:45:00,30.5,28.7,22.55,ESE,115,0.0,21.0,93,0.00,,,0.01,Wunderground v.1.15,2013-04-02 05:45:00,
2013-04-01 23:47:00,30.4,28.6,22.55,ESE,115,0.0,21.0,93,0.00,,,0.01,Wunderground v.1.15,2013-04-02 05:47:00,
2013-04-01 23:49:00,30.4,28.6,22.55,ESE,114,0.0,21.0,93,0.00,,,0.01,Wunderground v.1.15,2013-04-02 05:49:00,
2013-04-01 23:54:00,30.3,28.5,22.55,ESE,114,0.0,21.0,93,0.00,,,0.01,Wunderground v.1.15,2013-04-02 05:54:00,